STARLINK-1394, 45679

Orbit data source: Space-Track

STARLINK-1394, 45679 is a payload satellite owned by SpaceX/Seattle (US) in LEO that was launched on Thu, 04 Jun 2020 UTC via an FALCON 9 launch vehicle from the Air Force Eastern Test Range (AFETR). Payload-class satellites include a variety of spacecraft equipped with specific instruments for various scientific and technological missions. These include communications satellites like Starlink; space stations such as the ISS; scientific satellites like the Hubble; Earth observation satellites from companies like Planet Labs, Umbra, and HawkEye 360; GPS; miniature CubeSats for education and research; and military/defense satellites.

Loading next visibility...
Identifier
45679, 2020-035Y
Orbit
LEO
Country
Flag of USUS
Related business
Manufacturer
SpaceX/Seattle
Mission
Partially operational Commercial Communications
Bus & Motor
STARLINK, Unknown motor
Mass
260 kg wet, ~248 kg dry
Launch date (UTC)
2020-06-04 (6 years ago)
Launch vehicle
FALCON 9
Launch site
Air Force Eastern Test Range (AFETR)
Object type
Payload
Rocket body
Debris
Shape & HBR
Box + 1 Pan, 10.1 m
Radar Cross Section
13.562 m², Large (>1 m²)

Expand to show TLE details & history
Last TLE update: 19 hours ago

TLE from 19 hours ago
0 STARLINK-1394
1 45679U 20035Y   26065.32741600  .00059072  00000-0  10705-2 0  9991
2 45679  53.0500  52.6837 0002579 108.8068 251.3219 15.49081934318639
Epoch: 2026-03-06T07:51Z
TLE epoch observation values (Epoch: 2026-03-06T07:51:28.742Z)
Latitude
-0.00005°
Longitude
130.7489°
Altitude
420.867 km
Speed
7.66 km/s
True Right ascension
03h 30m 44s
True Declination
0° 00' 00"
Sunlit
Object was in daylight at epoch
Visualization orbit readout
Latitude
Unknown
Longitude
Unknown
Altitude
Unknown
Speed
Unknown
Apparent Right ascension
Unknown
Apparent Declination
Unknown
Sunlit
N/A
Visualization observer readout
Local Sidereal Time
07:06:21
Azimuth
Unknown
Elevation
Unknown
Doppler factor
Unknown
Orbital elements
Apogee altitude
421.44 km
Perigee altitude
417.934 km
Semi-major axis
6,797.824 km
Eccentricity
0.00026
Inclination
53.05°
RAAN
52.6837°
Arg. of periapsis
108.8068°
True anomaly
251.29391°
Mean anomaly
251.3219°
Eccentric anomaly
251.3079°
Mean motion
3.87247 °/min
Orbital period
92.96 mins
BSTAR
0.0010705
Loading maneuver chart data...
Computing Atmospheric mass density...
Loading historical data...
Loading historical data...
Loading historical data...
Loading historical data...
Loading historical data...
Loading historical data...
Loading historical data...

Documentation

Showing up to 5 results
|